Tracking 27422 objects as of 31-May-2023
HD Live streaming from Space Station
objects crossing your sky now

STARLINK-5041

Track STARLINK-5041 now!
10-day predictions
STARLINK-5041 is classified as:


NORAD ID: 53891
Int'l Code: 2022-119F
Perigee: 546.2 km
Apogee: 547.6 km
Inclination: 53.2 °
Period: 95.4 minutes
Semi major axis: 6917 km
RCS: Unknown
Launch date: September 24, 2022
Source: United States (US)
Launch site: AIR FORCE EASTERN TEST RANGE (AFETR)
Your satellite tracking list
Your tracking list is empty




NASA's NSSDC Master Catalog

Two Line Element Set (TLE):
1 53891U 22119F   23150.42234008  .00000040  00000-0  20566-4 0  9992
2 53891  53.2144 197.4145 0000988  94.4644 265.6461 15.08833115 38561
Source of the keplerian elements: AFSPC